Time,TemperatureF,DewpointF,PressureIn,WindDirection,WindDirectionDegrees,WindSpeedMPH,WindSpeedGustMPH,Humidity,HourlyPrecipIn,Conditions,Clouds,dailyrainin,SoftwareType,DateUTC
2013-05-13 00:10:00,68.4,51.1,30.07,SSE,157,6.7,-999.0,54,-99.99,,,0.00,Acu-Link.com,2013-05-13 05:10:00,
2013-05-13 00:25:00,67.1,51.4,30.07,ESE,112,6.7,-999.0,57,-99.99,,,0.00,Acu-Link.com,2013-05-13 05:25:00,
2013-05-13 00:41:00,67.3,51.0,30.08,South,180,6.3,-999.0,56,-99.99,,,0.00,Acu-Link.com,2013-05-13 05:41:00,
2013-05-13 00:56:00,68.2,50.9,30.08,SSW,202,6.7,-999.0,54,-99.99,,,0.00,Acu-Link.com,2013-05-13 05:56:00,
2013-05-13 01:11:00,68.9,51.1,30.07,SSW,202,7.4,-999.0,53,-99.99,,,0.00,Acu-Link.com,2013-05-13 06:11:00,
2013-05-13 01:26:00,68.2,50.9,30.08,SW,225,8.3,-999.0,54,-99.99,,,0.00,Acu-Link.com,2013-05-13 06:26:00,
2013-05-13 01:41:00,68.0,51.2,30.07,South,180,8.9,-999.0,55,-99.99,,,0.00,Acu-Link.com,2013-05-13 06:41:00,
2013-05-13 01:56:00,67.6,51.4,30.08,SSW,202,5.8,-999.0,56,-99.99,,,0.00,Acu-Link.com,2013-05-13 06:56:00,
2013-05-13 02:11:00,66.7,51.0,30.07,South,180,6.7,-999.0,57,-99.99,,,0.00,Acu-Link.com,2013-05-13 07:11:00,
2013-05-13 02:26:00,65.7,50.9,30.08,West,270,0.0,-999.0,59,-99.99,,,0.00,Acu-Link.com,2013-05-13 07:26:00,
2013-05-13 02:41:00,64.8,51.0,30.08,South,180,0.0,-999.0,61,-99.99,,,0.00,Acu-Link.com,2013-05-13 07:41:00,
2013-05-13 02:56:00,64.0,51.2,30.08,WSW,247,0.0,-999.0,63,-99.99,,,0.00,Acu-Link.com,2013-05-13 07:56:00,
2013-05-13 03:12:00,63.5,51.1,30.07,WSW,247,0.0,-999.0,64,-99.99,,,0.00,Acu-Link.com,2013-05-13 08:12:00,
2013-05-13 03:27:00,63.0,51.0,30.07,WSW,247,0.0,-999.0,65,-99.99,,,0.00,Acu-Link.com,2013-05-13 08:27:00,
2013-05-13 03:42:00,61.9,50.8,30.07,WSW,247,0.0,-999.0,67,-99.99,,,0.00,Acu-Link.com,2013-05-13 08:42:00,
2013-05-13 03:57:00,61.2,50.9,30.08,WSW,247,0.0,-999.0,69,-99.99,,,0.00,Acu-Link.com,2013-05-13 08:57:00,
2013-05-13 04:12:00,60.1,50.3,30.08,SW,225,0.0,-999.0,70,-99.99,,,0.00,Acu-Link.com,2013-05-13 09:12:00,
2013-05-13 04:27:00,60.1,51.0,30.08,South,180,0.0,-999.0,72,-99.99,,,0.00,Acu-Link.com,2013-05-13 09:27:00,
2013-05-13 04:42:00,60.1,50.6,30.08,SSE,157,0.0,-999.0,71,-99.99,,,0.00,Acu-Link.com,2013-05-13 09:42:00,
2013-05-13 04:57:00,58.8,51.3,30.09,ESE,112,0.0,-999.0,76,-99.99,,,0.00,Acu-Link.com,2013-05-13 09:57:00,
2013-05-13 05:12:00,57.7,51.6,30.09,ESE,112,0.0,-999.0,80,-99.99,,,0.00,Acu-Link.com,2013-05-13 10:12:00,
2013-05-13 05:27:00,57.0,52.2,30.09,ESE,112,0.0,-999.0,84,-99.99,,,0.00,Acu-Link.com,2013-05-13 10:27:00,
2013-05-13 05:42:00,56.7,52.2,30.08,ESE,112,0.0,-999.0,85,-99.99,,,0.00,Acu-Link.com,2013-05-13 10:42:00,
2013-05-13 05:57:00,56.3,51.8,30.09,SE,135,0.0,-999.0,85,-99.99,,,0.00,Acu-Link.com,2013-05-13 10:57:00,
2013-05-13 06:12:00,56.1,52.3,30.09,SE,135,0.0,-999.0,87,-99.99,,,0.00,Acu-Link.com,2013-05-13 11:12:00,
2013-05-13 06:27:00,55.8,52.6,30.09,SE,135,0.0,-999.0,89,-99.99,,,0.00,Acu-Link.com,2013-05-13 11:27:00,
2013-05-13 06:42:00,55.8,52.6,30.09,SE,135,0.0,-999.0,89,-99.99,,,0.00,Acu-Link.com,2013-05-13 11:42:00,
2013-05-13 06:58:00,57.7,52.6,30.10,South,180,0.0,-999.0,83,-99.99,,,0.00,Acu-Link.com,2013-05-13 11:58:00,
2013-05-13 07:13:00,60.4,52.1,30.10,SSE,157,0.0,-999.0,74,-99.99,,,0.00,Acu-Link.com,2013-05-13 12:13:00,
2013-05-13 07:28:00,62.4,51.7,30.11,SSE,157,0.0,-999.0,68,-99.99,,,0.00,Acu-Link.com,2013-05-13 12:28:00,
2013-05-13 07:43:00,64.6,51.7,30.11,SSW,202,0.0,-999.0,63,-99.99,,,0.00,Acu-Link.com,2013-05-13 12:43:00,
2013-05-13 07:58:00,65.5,51.7,30.11,SSW,202,6.3,-999.0,61,-99.99,,,0.00,Acu-Link.com,2013-05-13 12:58:00,
2013-05-13 08:13:00,66.4,51.6,30.12,South,180,6.3,-999.0,59,-99.99,,,0.00,Acu-Link.com,2013-05-13 13:13:00,
2013-05-13 08:28:00,68.0,52.7,30.12,WSW,247,0.0,-999.0,58,-99.99,,,0.00,Acu-Link.com,2013-05-13 13:28:00,
2013-05-13 08:43:00,69.4,52.6,30.12,SW,225,4.3,-999.0,55,-99.99,,,0.00,Acu-Link.com,2013-05-13 13:43:00,
2013-05-13 08:58:00,70.2,53.2,30.13,West,270,7.8,-999.0,55,-99.99,,,0.00,Acu-Link.com,2013-05-13 13:58:00,
2013-05-13 09:13:00,72.3,50.9,30.12,WNW,292,8.3,-999.0,47,-99.99,,,0.00,Acu-Link.com,2013-05-13 14:13:00,
2013-05-13 09:28:00,73.4,50.8,30.12,WSW,247,9.4,-999.0,45,-99.99,,,0.00,Acu-Link.com,2013-05-13 14:28:00,
2013-05-13 09:43:00,75.0,51.6,30.12,NW,315,12.5,-999.0,44,-99.99,,,0.00,Acu-Link.com,2013-05-13 14:43:00,
2013-05-13 09:58:00,76.5,51.6,30.12,West,270,15.0,-999.0,42,-99.99,,,0.00,Acu-Link.com,2013-05-13 14:58:00,
2013-05-13 10:13:00,78.1,51.1,30.12,West,270,13.4,-999.0,39,-99.99,,,0.00,Acu-Link.com,2013-05-13 15:13:00,
2013-05-13 10:28:00,78.4,50.0,30.12,West,270,14.1,-999.0,37,-99.99,,,0.00,Acu-Link.com,2013-05-13 15:28:00,
2013-05-13 10:43:00,80.1,50.7,30.12,WSW,247,13.0,-999.0,36,-99.99,,,0.00,Acu-Link.com,2013-05-13 15:43:00,
2013-05-13 10:58:00,81.0,49.9,30.12,West,270,11.4,-999.0,34,-99.99,,,0.00,Acu-Link.com,2013-05-13 15:58:00,
2013-05-13 11:13:00,82.6,51.3,30.11,SW,225,7.8,-999.0,34,-99.99,,,0.00,Acu-Link.com,2013-05-13 16:13:00,
2013-05-13 11:29:00,83.1,50.2,30.11,West,270,10.3,-999.0,32,-99.99,,,0.00,Acu-Link.com,2013-05-13 16:29:00,
2013-05-13 11:44:00,84.7,49.8,30.11,SW,225,10.3,-999.0,30,-99.99,,,0.00,Acu-Link.com,2013-05-13 16:44:00,
2013-05-13 11:59:00,85.3,50.3,30.11,WNW,292,6.7,-999.0,30,-99.99,,,0.00,Acu-Link.com,2013-05-13 16:59:00,
2013-05-13 12:14:00,87.3,49.2,30.10,West,270,12.5,-999.0,27,-99.99,,,0.00,Acu-Link.com,2013-05-13 17:14:00,
2013-05-13 12:29:00,88.2,47.9,30.10,West,270,9.8,-999.0,25,-99.99,,,0.00,Acu-Link.com,2013-05-13 17:29:00,
2013-05-13 12:44:00,88.5,48.2,30.10,West,270,13.0,-999.0,25,-99.99,,,0.00,Acu-Link.com,2013-05-13 17:44:00,
2013-05-13 12:59:00,88.9,47.4,30.09,SSW,202,9.4,-999.0,24,-99.99,,,0.00,Acu-Link.com,2013-05-13 17:59:00,
2013-05-13 13:14:00,89.4,46.7,30.08,West,270,11.4,-999.0,23,-99.99,,,0.00,Acu-Link.com,2013-05-13 18:14:00,
2013-05-13 13:29:00,90.5,47.6,30.08,South,180,5.8,-999.0,23,-99.99,,,0.00,Acu-Link.com,2013-05-13 18:29:00,
2013-05-13 13:44:00,91.0,46.9,30.07,West,270,5.8,-999.0,22,-99.99,,,0.00,Acu-Link.com,2013-05-13 18:44:00,
2013-05-13 13:59:00,92.7,47.0,30.07,SW,225,7.8,-999.0,21,-99.99,,,0.00,Acu-Link.com,2013-05-13 18:59:00,
2013-05-13 14:14:00,93.0,25.8,30.06,West,270,15.0,-999.0,9,-99.99,,,0.00,Acu-Link.com,2013-05-13 19:14:00,
2013-05-13 14:29:00,94.1,12.9,30.06,SW,225,8.9,-999.0,5,-99.99,,,0.00,Acu-Link.com,2013-05-13 19:29:00,
2013-05-13 14:44:00,93.6,12.5,30.05,SW,225,9.4,-999.0,5,-99.99,,,0.00,Acu-Link.com,2013-05-13 19:44:00,
2013-05-13 14:59:00,94.8,94.5,30.05,SSE,157,17.7,-999.0,99,-99.99,,,0.00,Acu-Link.com,2013-05-13 19:59:00,
2013-05-13 15:14:00,94.3,94.0,30.04,SW,225,6.7,-999.0,99,-99.99,,,0.00,Acu-Link.com,2013-05-13 20:14:00,
2013-05-13 15:29:00,94.8,94.5,30.03,West,270,9.4,-999.0,99,-99.99,,,0.00,Acu-Link.com,2013-05-13 20:29:00,
2013-05-13 15:45:00,94.6,94.3,30.03,SW,225,14.1,-999.0,99,-99.99,,,0.00,Acu-Link.com,2013-05-13 20:45:00,
2013-05-13 16:00:00,95.2,94.9,30.03,SW,225,10.3,-999.0,99,-99.99,,,0.00,Acu-Link.com,2013-05-13 21:00:00,
2013-05-13 16:15:00,94.6,94.3,30.02,SSW,202,13.0,-999.0,99,-99.99,,,0.00,Acu-Link.com,2013-05-13 21:15:00,
2013-05-13 16:30:00,94.1,93.8,30.01,SSW,202,14.5,-999.0,99,-99.99,,,0.00,Acu-Link.com,2013-05-13 21:30:00,
2013-05-13 16:45:00,93.9,93.6,30.01,South,180,12.5,-999.0,99,-99.99,,,0.00,Acu-Link.com,2013-05-13 21:45:00,
2013-05-13 17:00:00,94.6,94.3,30.01,WSW,247,11.4,-999.0,99,-99.99,,,0.00,Acu-Link.com,2013-05-13 22:00:00,
2013-05-13 17:15:00,94.5,94.1,30.01,South,180,6.3,-999.0,99,-99.99,,,0.00,Acu-Link.com,2013-05-13 22:15:00,
2013-05-13 17:30:00,94.8,94.5,30.00,WNW,292,5.8,-999.0,99,-99.99,,,0.00,Acu-Link.com,2013-05-13 22:30:00,
2013-05-13 17:45:00,94.6,94.3,30.00,SW,225,7.4,-999.0,99,-99.99,,,0.00,Acu-Link.com,2013-05-13 22:45:00,
2013-05-13 18:00:00,94.1,93.8,30.00,West,270,8.3,-999.0,99,-99.99,,,0.00,Acu-Link.com,2013-05-13 23:00:00,
2013-05-13 18:15:00,94.5,94.1,30.00,SSW,202,8.3,-999.0,99,-99.99,,,0.00,Acu-Link.com,2013-05-13 23:15:00,
2013-05-13 18:30:00,94.6,94.3,30.00,SSW,202,7.4,-999.0,99,-99.99,,,0.00,Acu-Link.com,2013-05-13 23:30:00,
2013-05-13 18:45:00,94.1,93.8,29.99,SW,225,11.9,-999.0,99,-99.99,,,0.00,Acu-Link.com,2013-05-13 23:45:00,
2013-05-13 19:00:00,93.6,93.2,29.99,WNW,292,9.4,-999.0,99,-99.99,,,0.00,Acu-Link.com,2013-05-14 00:00:00,
2013-05-13 19:15:00,92.5,92.2,29.99,SW,225,8.3,-999.0,99,-99.99,,,0.00,Acu-Link.com,2013-05-14 00:15:00,
2013-05-13 19:30:00,92.3,92.0,29.99,South,180,7.4,-999.0,99,-99.99,,,0.00,Acu-Link.com,2013-05-14 00:30:00,
2013-05-13 19:45:00,90.5,90.2,29.99,SSW,202,6.7,-999.0,99,-99.99,,,0.00,Acu-Link.com,2013-05-14 00:45:00,
2013-05-13 20:01:00,89.1,88.7,29.99,South,180,9.8,-999.0,99,-99.99,,,0.00,Acu-Link.com,2013-05-14 01:01:00,
2013-05-13 20:16:00,87.3,86.9,29.99,South,180,8.3,-999.0,99,-99.99,,,0.00,Acu-Link.com,2013-05-14 01:16:00,
2013-05-13 20:31:00,85.8,38.8,29.99,South,180,8.3,-999.0,19,-99.99,,,0.00,Acu-Link.com,2013-05-14 01:31:00,
2013-05-13 20:46:00,84.9,40.6,29.99,South,180,10.3,-999.0,21,-99.99,,,0.00,Acu-Link.com,2013-05-14 01:46:00,
2013-05-13 21:01:00,84.0,39.9,30.00,SSW,202,12.5,-999.0,21,-99.99,,,0.00,Acu-Link.com,2013-05-14 02:01:00,
2013-05-13 21:16:00,83.8,40.9,30.01,SSW,202,7.8,-999.0,22,-99.99,,,0.00,Acu-Link.com,2013-05-14 02:16:00,
2013-05-13 21:31:00,82.8,41.2,30.02,South,180,8.9,-999.0,23,-99.99,,,0.00,Acu-Link.com,2013-05-14 02:31:00,
2013-05-13 21:46:00,82.0,41.7,30.01,SSW,202,11.0,-999.0,24,-99.99,,,0.00,Acu-Link.com,2013-05-14 02:46:00,
2013-05-13 22:01:00,81.1,42.0,30.02,South,180,11.9,-999.0,25,-99.99,,,0.00,Acu-Link.com,2013-05-14 03:01:00,
2013-05-13 22:16:00,79.9,42.9,30.03,SSW,202,9.4,-999.0,27,-99.99,,,0.00,Acu-Link.com,2013-05-14 03:16:00,
2013-05-13 22:31:00,79.3,42.4,30.03,SW,225,10.3,-999.0,27,-99.99,,,0.00,Acu-Link.com,2013-05-14 03:31:00,
2013-05-13 22:46:00,78.1,42.3,30.03,SSW,202,9.8,-999.0,28,-99.99,,,0.20,Acu-Link.com,2013-05-14 03:46:00,
2013-05-13 23:01:00,77.5,43.6,30.03,SSW,202,11.9,-999.0,30,-99.99,,,0.20,Acu-Link.com,2013-05-14 04:01:00,
2013-05-13 23:16:00,77.4,44.3,30.04,South,180,9.4,-999.0,31,-99.99,,,0.20,Acu-Link.com,2013-05-14 04:16:00,
2013-05-13 23:31:00,77.2,44.2,30.04,South,180,7.4,-999.0,31,-99.99,,,0.20,Acu-Link.com,2013-05-14 04:31:00,
2013-05-13 23:46:00,76.6,43.7,30.03,SSW,202,12.5,-999.0,31,-99.99,,,0.20,Acu-Link.com,2013-05-14 04:46:00,